Starlink 31496

operational
NORAD ID: 59211 Int'l Des: 2024-046 Owner: SPXS Country: US Constellation: starlink
LEOCIRCULAR

关于 Starlink 31496

正在加载描述...

实时位置

正在加载3D地球...

即将过境

高度历史

Altitude vs Time

uPlot chart will show altitude changes over time

两行轨道根数

1 59211U 24046L 25304.59846744 -.00003025 00000-0 -90126-4 0 9999
2 59211 53.1599 22.2820 0001153 97.7763 262.3369 15.30171844 93453
Epoch: Oct 31, 2025 • Age: 8 hours

当前状态

高度 476.0 km
速度 7.63 km/s
星下点 2.63°N, 9.03°E
发射日期 Mar 11, 2024
运行时间 1.6 years
类型 internet

技术详情

分类 Payload
质量 730.00 kg
干质量 700.00 kg
总质量 730.00 kg
长度 0.30 m
直径 4.10 m
跨度 29.00 m
形状 Box + pan
制造商 SPXS
平台类型 Starlink V2M
阶段状态 In Orbit
所有者/国家 SPXS/US

大型星座

Loading constellations...